Powrót do katalogu

IGS 7A

AktywnyMilitariaSSO
NORAD 37954·PAYLOAD·🇯🇵 Japan

Wystrzelony Dec 12, 2011 z Tanegashima Space Center

Loading…

Następne Przeloty (najbliższe 24 godziny)

TLE

NieaktualneSource: Mike McCants

Epoka: Aug 28, 2026, 22:33 UTC

1 37954U 11075A   26240.93964487 0.00002000  00000-0  99622-4 0    03
2 37954  97.4548 314.4576 0002707 100.9416 259.0582 15.17621095    02

Śledź IGS 7A w czasie rzeczywistym z AllMySat

Download on the App Store